Torna al catalogo

COSMOS 2251 DEB

AttivoLEO
NORAD 34567·DEBRIS·🇷🇺 Russia

Lanciato Jun 16, 1993 da Plesetsk Cosmodrome

Loading…

Prossimi Passaggi (prossime 24 ore)

TLE

AggiornatoSource: Space-Track

Epoca: Sep 14, 2026, 08:19 UTC

1 34567U 93036VD  26257.34721681  .00000188  00000-0  89869-4 0  9991
2 34567  74.0435  20.6324 0073457  27.3438   3.6023 14.24236004910482

Traccia COSMOS 2251 DEB in tempo reale con AllMySat

Download on the App Store